Flag for Cuba Weather past 2 weeks in Santiago de Cuba, Cuba

Now
84 °F

Passing clouds.


Feels Like: 92 °F
Forecast: 76 / 92 °F
Wind: 9 mph from Southeast

Location: Santiago De Cuba - Oriente

Current Time: Jul 24, 2014 at 9:35:50 PM

Latest Report: Jul 24, 2014 at 8:51 PM


Visibility: 6 mi

Pressure: 29.98 "Hg

Humidity: 74%

Dew point: 75 °F

Location of Santiago de CubaLocation

Historic Weather in Santiago de Cuba — Graph

°F

Santiago de Cuba temperature yesterday

Maximum temperature yesterday: 88 °F (at 12:53 PM)
Minimum temperature yesterday: 75 °F (at 12:50 AM)
Average temperature yesterday: 81 °F

Past Weeks' High & Low Weather Summary

 TemperatureHumidityPressure
High93 °F (Jul 24, 11:53 AM)89% (Jul 10, 11:55 PM)30.09 "Hg (Jul 10, 11:55 PM)
Low73 °F (Jul 13, 5:52 AM)41% (Jul 24, 10:52 AM)29.95 "Hg (Jul 17, 3:52 AM)
Average82 °F72%30.02 "Hg
* Reported Jul 9 7:50 PM — Jul 24 7:50 PM, Santiago de Cuba, Weather by CustomWeather, © 2014

Note: Actual official high and low records may vary slightly from our data, if they occured in-between our weather recording intervals... More about our weather records

Advertising

Santiago de Cuba weather history for previous 24 hours

 ConditionsComfort  
Time TempWeatherWind HumidityBarometerVisibility
7:50 PM
Jul 24
84 °FPassing clouds.8 mph74%29.98 "Hg6 mi
6:51 PM84 °FScattered clouds.9 mph79%29.95 "Hg6 mi
5:54 PM86 °FPassing clouds.10 mph70%29.95 "Hg6 mi
4:52 PM88 °FPassing clouds.10 mph66%29.95 "Hg6 mi
3:50 PM88 °FScattered clouds.10 mph70%29.95 "Hg6 mi
2:50 PM88 °FScattered clouds.10 mph66%29.98 "Hg6 mi
1:53 PM88 °FScattered clouds.12 mph59%29.98 "Hg6 mi
12:52 PM88 °FPassing clouds.9 mph59%30.01 "Hg6 mi
11:53 AM93 °FPassing clouds.5 mph44%30.01 "Hg6 mi
10:52 AM91 °FPassing clouds.6 mph41%30.01 "Hg6 mi
9:52 AM88 °FPassing clouds.6 mph55%30.01 "Hg6 mi
8:53 AM84 °FPassing clouds.6 mph66%30.01 "Hg6 mi
7:50 AM77 °FPassing clouds.5 mph89%30.01 "HgN/A
6:51 AM75 °FPassing clouds.5 mph89%30.01 "HgN/A
5:59 AM75 °FMild.5 mph89%30.01 "HgN/A
4:52 AM75 °FPassing clouds.5 mph89%30.01 "Hg6 mi
3:52 AM75 °FPassing clouds.5 mph89%30.01 "Hg6 mi
2:52 AM75 °FPassing clouds.5 mph89%30.01 "Hg6 mi
1:53 AM77 °FPassing clouds.5 mph83%30.04 "Hg6 mi
12:50 AM77 °FPassing clouds.5 mph83%30.04 "Hg6 mi
10:50 PM
Jul 23
79 °FPassing clouds.3 mph79%30.04 "Hg6 mi
9:50 PM81 °FPassing clouds.5 mph74%30.04 "Hg6 mi
Weather by CustomWeather, © 2014

See weather overviewHow to use our weather pages